Tracking 31023 objects as of 19-Jul-2025
HD Live streaming from Space Station
objects crossing your sky now

FENGYUN 1C DEB

Track FENGYUN 1C DEB now!
10-day predictions


NORAD ID: 29819
Int'l Code: 1999-025DM
Perigee: 753.7 km
Apogee: 1,034.2 km
Inclination: 98.7 °
Period: 102.7 minutes
Semi major axis: 7264 km
RCS: 0.055 m2 (small)
Launch date: May 10, 1999
Source: People's Republic of China (PRC)
Launch site: Taiyaun Space Center, China (TSC)

Note: This is SATELLITE DEBRIS
Your satellite tracking list
Your tracking list is empty




NASA's NSSDC Master Catalog

Two Line Element Set (TLE):
1 29819U 99025DM  25199.96038983  .00000260  00000-0  16694-3 0  9993
2 29819  98.7189 189.8619 0193069 117.4688 263.9702 14.02028820945631
Source of the keplerian elements: AFSPC